{"data":{"norad_id":56327,"intl_designator":"2023-058L","name":"STARLINK-5997","alt_names":[],"object_type":"PAYLOAD","status":"ACTIVE","operator":null,"country":"US","launch_date":"2023-04-27","launch_site_code":"AFWTR","launch_vehicle":null,"mission":null,"orbit_class":"UNKNOWN","rcs_meters":null,"size_class":null,"mass_kg":null,"dimensions":null,"purposes":["comms"],"wikipedia_slug":null,"has_3d_model":false,"image_url":null,"decayed_at":null,"tle_current":{"epoch":"2026-09-20T22:00:03.000096Z","epoch_age_seconds":72937,"freshness":"FRESH","line1":"1 56327U 23058L   26263.91670139  .00069768  00000+0  33525-2 0  9991","line2":"2 56327  97.2839 257.7590 0002457  93.2848 337.5481 15.18538748  5680","mean_motion":15.18538748,"eccentricity":0.0002457,"inclination_deg":97.2839,"raan_deg":257.759,"arg_perigee_deg":93.2848,"mean_anomaly_deg":337.5481,"bstar":0.0033525,"rev_number":568,"period_min":94.828005007877,"perigee_km":508.56361435128,"apogee_km":511.94857071695,"semimajor_km":6888.3930925341,"source":"CELESTRAK","updated_at":"2026-09-21T09:00:33.402462Z"}}}